Total_Precipitation_Accumulation
1.06 1.10 1.10 1.10 1.14 1.10 1.00 0.88 0.82 0.79 0.77 0.78 0.83 0.86 0.83 0.79 0.81 0.87 0.97 1.16 1.28 1.29 1.30 1.35 1.35 1.34 1.32 1.28 1.34 1.46 1.59 1.59 1.37 1.16 1.18 1.20 1.15 1.03 0.97 0.89 0.76 0.68 0.55
1.07 1.23 1.28 1.20 1.15 1.06 0.92 0.83 0.79 0.77 0.76 0.76 0.77 0.75 0.70 0.70 0.76 0.81 0.92 1.02 1.10 1.12 1.11 1.11 1.05 1.03 1.06 1.04 1.11 1.18 1.28 1.46 1.45 1.32 1.38 1.41 1.39 1.28 1.22 1.14 0.94 0.74 0.62
1.04 1.36 1.49 1.42 1.27 1.09 0.90 0.76 0.72 0.71 0.73 0.72 0.71 0.72 0.74 0.81 0.88 0.91 0.93 0.92 0.92 0.95 1.03 1.10 1.00 0.94 0.93 0.96 0.98 0.96 1.01 1.18 1.30 1.34 1.39 1.48 1.48 1.46 1.33 1.19 1.11 0.99 0.76
0.93 1.14 1.24 1.16 1.05 0.94 0.78 0.64 0.60 0.62 0.67 0.69 0.73 0.76 0.81 0.86 0.91 0.94 0.95 0.90 0.82 0.75 0.80 0.86 0.87 0.85 0.84 0.91 0.93 0.93 0.95 1.08 1.21 1.29 1.37 1.53 1.55 1.48 1.43 1.27 1.25 1.15 1.03
0.70 0.78 0.87 0.84 0.75 0.70 0.68 0.64 0.61 0.66 0.68 0.73 0.78 0.82 0.82 0.80 0.74 0.72 0.73 0.73 0.70 0.64 0.59 0.60 0.65 0.71 0.74 0.77 0.77 0.89 0.97 1.01 1.05 1.11 1.18 1.37 1.58 1.62 1.43 1.33 1.39 1.37 1.24
0.54 0.61 0.73 0.82 0.77 0.68 0.66 0.67 0.65 0.70 0.74 0.77 0.79 0.83 0.84 0.71 0.72 0.63 0.57 0.59 0.63 0.63 0.64 0.63 0.59 0.58 0.58 0.58 0.58 0.64 0.78 0.88 0.94 1.00 1.05 1.21 1.43 1.60 1.65 1.60 1.52 1.43 1.39
0.56 0.65 0.75 0.83 0.83 0.78 0.72 0.75 0.75 0.82 0.87 0.85 0.82 0.80 0.81 0.83 0.81 0.68 0.54 0.50 0.54 0.59 0.64 0.65 0.55 0.50 0.56 0.55 0.56 0.54 0.53 0.62 0.74 0.88 0.95 1.00 1.16 1.39 1.60 1.56 1.62 1.63 1.61
0.64 0.74 0.84 0.90 0.89 0.88 0.90 0.95 1.00 1.03 1.03 1.00 0.94 0.87 0.89 0.87 0.79 0.63 0.55 0.48 0.50 0.53 0.58 0.62 0.61 0.54 0.52 0.59 0.64 0.59 0.54 0.52 0.56 0.63 0.72 0.88 1.09 1.33 1.60 1.59 1.58 1.65 1.70
0.79 0.86 0.94 1.03 1.07 1.09 1.12 1.13 1.17 1.21 1.15 1.07 1.00 0.99 0.95 0.95 0.90 0.72 0.64 0.60 0.65 0.67 0.69 0.66 0.65 0.60 0.60 0.57 0.59 0.61 0.61 0.60 0.57 0.60 0.63 0.80 1.02 1.15 1.36 1.49 1.46 1.47 1.39
0.93 1.07 1.23 1.36 1.38 1.36 1.43 1.42 1.36 1.30 1.23 1.24 1.20 1.17 1.16 1.22 1.27 1.06 0.93 0.83 0.84 0.83 0.89 0.83 0.74 0.66 0.64 0.60 0.58 0.63 0.63 0.63 0.70 0.68 0.64 0.67 0.78 0.96 1.11 1.24 1.35 1.40 1.28
1.07 1.22 1.44 1.59 1.66 1.70 1.77 1.75 1.68 1.63 1.61 1.57 1.48 1.45 1.46 1.47 1.51 1.30 1.15 1.05 1.08 1.13 1.11 1.02 0.97 0.88 0.74 0.70 0.66 0.67 0.66 0.67 0.75 0.78 0.79 0.81 0.86 0.95 1.02 1.10 1.26 1.38 1.35
1.12 1.26 1.40 1.55 1.60 1.68 1.86 1.91 1.90 1.88 1.82 1.78 1.74 1.62 1.59 1.57 1.47 1.31 1.13 1.03 1.10 1.22 1.27 1.19 1.11 0.97 0.78 0.71 0.65 0.63 0.61 0.57 0.61 0.72 0.77 0.80 0.82 0.85 0.92 1.06 1.20 1.27 1.32
1.20 1.33 1.47 1.55 1.62 1.70 1.75 1.75 1.77 1.83 1.82 1.75 1.74 1.67 1.63 1.63 1.55 1.27 1.07 0.97 0.99 1.10 1.25 1.28 1.13 0.97 0.82 0.70 0.65 0.62 0.57 0.53 0.59 0.67 0.69 0.71 0.72 0.78 0.92 1.09 1.26 1.33 1.30
1.30 1.36 1.45 1.57 1.59 1.62 1.74 1.83 1.89 1.97 2.04 1.94 1.83 1.74 1.68 1.63 1.54 1.37 1.19 1.09 1.11 1.18 1.27 1.32 1.18 1.05 0.91 0.84 0.76 0.67 0.63 0.68 0.72 0.74 0.76 0.80 0.86 0.92 0.97 1.04 1.14 1.24 1.27
1.23 1.29 1.34 1.41 1.50 1.58 1.65 1.72 1.72 1.78 1.77 1.73 1.66 1.63 1.62 1.59 1.44 1.35 1.25 1.14 1.18 1.26 1.30 1.37 1.28 1.22 1.14 1.05 0.97 0.92 0.91 0.91 0.86 0.84 0.89 0.91 0.92 0.98 1.00 1.02 1.13 1.15 1.10
1.29 1.32 1.28 1.28 1.34 1.41 1.46 1.45 1.40 1.33 1.30 1.25 1.24 1.24 1.23 1.18 1.10 0.99 0.95 0.95 1.00 1.12 1.19 1.36 1.43 1.39 1.34 1.27 1.16 1.06 1.02 0.98 0.92 0.94 0.97 0.98 0.98 1.00 1.05 1.05 1.10 1.13 1.05
1.18 1.20 1.18 1.19 1.26 1.30 1.33 1.36 1.39 1.32 1.19 1.11 1.07 1.03 1.04 1.02 0.98 0.94 0.93 0.97 0.97 1.03 1.10 1.26 1.33 1.30 1.27 1.22 1.10 0.99 0.94 0.95 1.01 1.03 1.05 1.04 1.09 1.11 1.15 1.13 1.10 1.14 1.10
1.02 1.05 1.08 1.12 1.18 1.26 1.32 1.39 1.50 1.58 1.52 1.34 1.14 1.03 0.95 0.89 0.83 0.81 0.83 0.84 0.84 0.88 1.01 1.15 1.19 1.13 1.10 1.07 1.05 0.99 0.98 1.03 1.12 1.10 1.10 1.11 1.12 1.12 1.15 1.15 1.12 1.09 1.09
0.93 0.93 0.94 0.98 1.03 1.09 1.12 1.20 1.29 1.39 1.42 1.33 1.18 1.05 0.93 0.84 0.75 0.71 0.70 0.70 0.77 0.89 1.04 1.09 1.11 1.11 1.05 1.02 1.01 0.97 0.96 0.99 1.08 1.13 1.11 1.12 1.11 1.13 1.12 1.08 1.11 1.10 1.01
0.86 0.84 0.85 0.86 0.86 0.86 0.88 0.96 1.05 1.16 1.21 1.15 1.07 0.96 0.85 0.80 0.72 0.66 0.61 0.61 0.69 0.78 0.88 0.95 0.99 0.96 0.90 0.92 0.94 0.93 0.91 0.97 1.08 1.10 1.07 1.09 1.14 1.13 1.05 1.02 1.04 1.07 0.99
0.85 0.77 0.73 0.73 0.73 0.75 0.80 0.86 0.90 0.93 0.99 0.95 0.88 0.76 0.69 0.65 0.59 0.55 0.56 0.59 0.68 0.78 0.84 0.89 0.89 0.85 0.84 0.88 0.92 0.95 0.92 0.98 1.06 1.07 1.07 1.11 1.15 1.14 1.07 1.04 1.01 1.03 1.03
0.84 0.74 0.67 0.64 0.67 0.69 0.71 0.78 0.83 0.84 0.81 0.78 0.73 0.59 0.56 0.54 0.49 0.46 0.49 0.55 0.62 0.73 0.75 0.74 0.77 0.78 0.76 0.78 0.84 0.90 0.95 1.00 1.08 1.10 1.07 1.09 1.13 1.13 1.14 1.11 1.10 1.06 1.06
0.86 0.73 0.63 0.59 0.60 0.61 0.64 0.74 0.80 0.78 0.70 0.65 0.60 0.56 0.55 0.58 0.49 0.46 0.51 0.59 0.66 0.68 0.65 0.66 0.70 0.74 0.75 0.76 0.76 0.84 0.91 0.97 1.02 1.03 1.09 1.12 1.10 1.08 1.08 1.03 1.03 1.04 1.04
0.82 0.73 0.64 0.55 0.55 0.60 0.63 0.69 0.73 0.72 0.66 0.61 0.57 0.56 0.56 0.59 0.56 0.54 0.59 0.70 0.69 0.63 0.61 0.64 0.67 0.70 0.73 0.78 0.78 0.78 0.82 0.87 0.87 0.87 0.90 0.95 0.97 0.98 1.01 0.99 0.99 0.97 1.00
0.80 0.72 0.62 0.53 0.51 0.55 0.58 0.64 0.67 0.68 0.65 0.59 0.58 0.59 0.61 0.65 0.62 0.61 0.64 0.66 0.62 0.58 0.54 0.58 0.64 0.66 0.69 0.71 0.73 0.73 0.73 0.70 0.70 0.73 0.76 0.80 0.85 0.93 0.99 0.99 0.99 0.98 0.97
0.73 0.66 0.60 0.53 0.47 0.47 0.54 0.61 0.63 0.63 0.60 0.57 0.56 0.58 0.58 0.58 0.55 0.51 0.49 0.49 0.49 0.49 0.49 0.54 0.60 0.62 0.66 0.67 0.60 0.58 0.55 0.50 0.52 0.61 0.64 0.72 0.83 0.90 0.94 0.99 0.98 0.99 0.97